Time,TemperatureF,DewpointF,PressureIn,WindDirection,WindDirectionDegrees,WindSpeedMPH,WindSpeedGustMPH,Humidity,HourlyPrecipIn,Conditions,Clouds,dailyrainin,SoftwareType,DateUTC
2013-03-04 00:02:00,26.0,-99.9,-100.00,East,87,9.0,10.0,-999,0.00,,,0.00,,2013-03-04 06:02:00,
2013-03-04 00:11:00,26.0,-99.9,-100.00,East,87,9.0,10.0,-999,0.00,,,0.00,,2013-03-04 06:11:00,
2013-03-04 00:22:00,26.0,-99.9,-100.00,East,87,9.0,10.0,-999,0.00,,,0.00,,2013-03-04 06:22:00,
2013-03-04 00:32:00,27.0,-99.9,-100.00,East,94,9.0,11.0,-999,0.00,,,0.00,,2013-03-04 06:32:00,
2013-03-04 00:42:00,27.0,-99.9,-100.00,East,94,9.0,11.0,-999,0.00,,,0.00,,2013-03-04 06:42:00,
2013-03-04 00:52:00,27.0,-99.9,-100.00,East,94,9.0,11.0,-999,0.00,,,0.00,,2013-03-04 06:52:00,
2013-03-04 01:02:00,27.0,-99.9,-100.00,East,84,8.0,9.0,-999,0.00,,,0.00,,2013-03-04 07:02:00,
2013-03-04 01:11:00,27.0,-99.9,-100.00,East,84,8.0,9.0,-999,0.00,,,0.00,,2013-03-04 07:11:00,
2013-03-04 01:22:00,27.0,-99.9,-100.00,East,84,8.0,9.0,-999,0.00,,,0.00,,2013-03-04 07:22:00,
2013-03-04 01:32:00,26.0,-99.9,-100.00,East,91,8.0,10.0,-999,0.00,,,0.00,,2013-03-04 07:32:00,
2013-03-04 01:42:00,26.0,-99.9,-100.00,East,91,8.0,10.0,-999,0.00,,,0.00,,2013-03-04 07:42:00,
2013-03-04 01:52:00,26.0,-99.9,-100.00,East,91,8.0,10.0,-999,0.00,,,0.00,,2013-03-04 07:52:00,
2013-03-04 02:02:00,26.0,-99.9,-100.00,East,95,6.0,9.0,-999,0.00,,,0.00,,2013-03-04 08:02:00,
2013-03-04 02:12:00,26.0,-99.9,-100.00,East,95,6.0,9.0,-999,0.00,,,0.00,,2013-03-04 08:12:00,
2013-03-04 02:22:00,26.0,-99.9,-100.00,East,95,6.0,9.0,-999,0.00,,,0.00,,2013-03-04 08:22:00,
2013-03-04 02:32:00,27.0,-99.9,-100.00,East,91,6.0,7.0,-999,0.00,,,0.00,,2013-03-04 08:32:00,
2013-03-04 02:42:00,27.0,-99.9,-100.00,East,91,6.0,7.0,-999,0.00,,,0.00,,2013-03-04 08:42:00,
2013-03-04 02:53:00,27.0,-99.9,-100.00,East,91,6.0,7.0,-999,0.00,,,0.00,,2013-03-04 08:53:00,
2013-03-04 03:02:00,27.0,-99.9,-100.00,East,90,8.0,9.0,-999,0.00,,,0.00,,2013-03-04 09:02:00,
2013-03-04 03:11:00,27.0,-99.9,-100.00,East,90,8.0,9.0,-999,0.00,,,0.00,,2013-03-04 09:11:00,
2013-03-04 03:22:00,27.0,-99.9,-100.00,East,90,8.0,9.0,-999,0.00,,,0.00,,2013-03-04 09:22:00,
2013-03-04 03:32:00,27.0,-99.9,-100.00,East,100,9.0,11.0,-999,0.00,,,0.00,,2013-03-04 09:32:00,
2013-03-04 03:42:00,27.0,-99.9,-100.00,East,100,9.0,11.0,-999,0.00,,,0.00,,2013-03-04 09:42:00,
2013-03-04 03:52:00,27.0,-99.9,-100.00,East,100,9.0,11.0,-999,0.00,,,0.00,,2013-03-04 09:52:00,
2013-03-04 04:02:00,27.0,-99.9,-100.00,East,98,10.0,13.0,-999,0.00,,,-99.99,,2013-03-04 10:02:00,
2013-03-04 04:12:00,27.0,-99.9,-100.00,East,98,10.0,13.0,-999,0.00,,,-99.99,,2013-03-04 10:12:00,
2013-03-04 04:22:00,27.0,-99.9,-100.00,East,98,10.0,13.0,-999,0.00,,,-99.99,,2013-03-04 10:22:00,
2013-03-04 04:32:00,27.0,-99.9,-100.00,ESE,105,10.0,12.0,-999,0.00,,,0.00,,2013-03-04 10:32:00,
2013-03-04 04:42:00,27.0,-99.9,-100.00,ESE,105,10.0,12.0,-999,0.00,,,0.00,,2013-03-04 10:42:00,
2013-03-04 04:52:00,27.0,-99.9,-100.00,ESE,105,10.0,12.0,-999,0.00,,,0.00,,2013-03-04 10:52:00,
2013-03-04 05:02:00,27.0,-99.9,-100.00,East,95,10.0,13.0,-999,0.00,,,0.00,,2013-03-04 11:02:00,
2013-03-04 05:11:00,27.0,-99.9,-100.00,East,95,10.0,13.0,-999,0.00,,,0.00,,2013-03-04 11:11:00,
2013-03-04 05:22:00,27.0,-99.9,-100.00,East,95,10.0,13.0,-999,0.00,,,0.00,,2013-03-04 11:22:00,
2013-03-04 05:32:00,27.0,-99.9,-100.00,East,93,12.0,14.0,-999,0.00,,,0.00,,2013-03-04 11:32:00,
2013-03-04 05:42:00,27.0,-99.9,-100.00,East,93,12.0,14.0,-999,0.00,,,0.00,,2013-03-04 11:42:00,
2013-03-04 05:52:00,27.0,-99.9,-100.00,East,93,12.0,14.0,-999,0.00,,,0.00,,2013-03-04 11:52:00,
2013-03-04 06:02:00,27.0,-99.9,-100.00,East,89,12.0,15.0,-999,0.00,,,0.00,,2013-03-04 12:02:00,
2013-03-04 06:12:00,27.0,-99.9,-100.00,East,89,12.0,15.0,-999,0.00,,,0.00,,2013-03-04 12:12:00,
2013-03-04 06:22:00,27.0,-99.9,-100.00,East,89,12.0,15.0,-999,0.00,,,0.00,,2013-03-04 12:22:00,
2013-03-04 06:32:00,27.0,-99.9,-100.00,East,88,10.0,13.0,-999,0.00,,,0.00,,2013-03-04 12:32:00,
2013-03-04 06:43:00,27.0,-99.9,-100.00,East,88,10.0,13.0,-999,0.00,,,0.00,,2013-03-04 12:43:00,
2013-03-04 06:53:00,27.0,-99.9,-100.00,East,88,10.0,13.0,-999,0.00,,,0.00,,2013-03-04 12:53:00,
2013-03-04 07:02:00,27.0,-99.9,-100.00,East,94,11.0,14.0,-999,0.00,,,0.00,,2013-03-04 13:02:00,
2013-03-04 07:12:00,27.0,-99.9,-100.00,East,94,11.0,14.0,-999,0.00,,,0.00,,2013-03-04 13:12:00,
2013-03-04 07:22:00,27.0,-99.9,-100.00,East,94,11.0,14.0,-999,0.00,,,0.00,,2013-03-04 13:22:00,
2013-03-04 07:32:00,27.0,-99.9,-100.00,East,96,12.0,14.0,-999,0.00,,,0.00,,2013-03-04 13:32:00,
2013-03-04 07:42:00,27.0,-99.9,-100.00,East,96,12.0,14.0,-999,0.00,,,0.00,,2013-03-04 13:42:00,
2013-03-04 07:52:00,27.0,-99.9,-100.00,East,96,12.0,14.0,-999,0.00,,,0.00,,2013-03-04 13:52:00,
2013-03-04 08:02:00,27.0,-99.9,-100.00,East,99,11.0,15.0,-999,0.00,,,0.00,,2013-03-04 14:02:00,
2013-03-04 08:12:00,27.0,-99.9,-100.00,East,99,11.0,15.0,-999,0.00,,,0.00,,2013-03-04 14:12:00,
2013-03-04 08:22:00,27.0,-99.9,-100.00,East,99,11.0,15.0,-999,0.00,,,0.00,,2013-03-04 14:22:00,
2013-03-04 08:32:00,27.0,-99.9,-100.00,East,92,13.0,18.0,-999,0.00,,,0.00,,2013-03-04 14:32:00,
2013-03-04 08:42:00,27.0,-99.9,-100.00,East,92,13.0,18.0,-999,0.00,,,0.00,,2013-03-04 14:42:00,
2013-03-04 08:52:00,27.0,-99.9,-100.00,East,92,13.0,18.0,-999,0.00,,,0.00,,2013-03-04 14:52:00,
2013-03-04 09:02:00,28.0,-99.9,-100.00,East,100,12.0,16.0,-999,0.00,,,-99.99,,2013-03-04 15:02:00,
2013-03-04 09:11:00,28.0,-99.9,-100.00,East,100,12.0,16.0,-999,0.00,,,-99.99,,2013-03-04 15:11:00,
2013-03-04 09:22:00,28.0,-99.9,-100.00,East,100,12.0,16.0,-999,0.00,,,-99.99,,2013-03-04 15:22:00,
2013-03-04 09:32:00,28.0,-99.9,-100.00,East,101,9.0,12.0,-999,0.00,,,0.00,,2013-03-04 15:32:00,
2013-03-04 09:42:00,28.0,-99.9,-100.00,East,101,9.0,12.0,-999,0.00,,,0.00,,2013-03-04 15:42:00,
2013-03-04 09:52:00,28.0,-99.9,-100.00,East,101,9.0,12.0,-999,0.00,,,0.00,,2013-03-04 15:52:00,
2013-03-04 10:03:00,29.0,-99.9,-100.00,East,91,13.0,18.0,-999,0.00,,,0.00,,2013-03-04 16:03:00,
2013-03-04 10:11:00,29.0,-99.9,-100.00,East,91,13.0,18.0,-999,0.00,,,0.00,,2013-03-04 16:11:00,
2013-03-04 10:22:00,29.0,-99.9,-100.00,East,91,13.0,18.0,-999,0.00,,,0.00,,2013-03-04 16:22:00,
2013-03-04 10:32:00,29.0,-99.9,-100.00,East,89,16.0,21.0,-999,0.00,,,0.00,,2013-03-04 16:32:00,
2013-03-04 10:42:00,29.0,-99.9,-100.00,East,89,16.0,21.0,-999,0.00,,,0.00,,2013-03-04 16:42:00,
2013-03-04 10:52:00,29.0,-99.9,-100.00,East,89,16.0,21.0,-999,0.00,,,0.00,,2013-03-04 16:52:00,
2013-03-04 11:02:00,30.0,-99.9,-100.00,East,88,18.0,24.0,-999,0.00,,,0.00,,2013-03-04 17:02:00,
2013-03-04 11:11:00,30.0,-99.9,-100.00,East,88,18.0,24.0,-999,0.00,,,0.00,,2013-03-04 17:11:00,
2013-03-04 11:22:00,30.0,-99.9,-100.00,East,88,18.0,24.0,-999,0.00,,,0.00,,2013-03-04 17:22:00,
2013-03-04 11:32:00,30.0,-99.9,-100.00,East,83,16.0,20.0,-999,0.00,,,0.00,,2013-03-04 17:32:00,
2013-03-04 11:42:00,30.0,-99.9,-100.00,East,83,16.0,20.0,-999,0.00,,,0.00,,2013-03-04 17:42:00,
2013-03-04 11:52:00,30.0,-99.9,-100.00,East,83,16.0,20.0,-999,0.00,,,0.00,,2013-03-04 17:52:00,
2013-03-04 12:02:00,31.0,-99.9,-100.00,East,92,18.0,24.0,-999,0.00,,,0.00,,2013-03-04 18:02:00,
2013-03-04 12:11:00,31.0,-99.9,-100.00,East,92,18.0,24.0,-999,0.00,,,0.00,,2013-03-04 18:11:00,
2013-03-04 12:22:00,31.0,-99.9,-100.00,East,92,18.0,24.0,-999,0.00,,,0.00,,2013-03-04 18:22:00,
2013-03-04 12:33:00,32.0,-99.9,-100.00,East,88,20.0,24.0,-999,0.00,,,0.00,,2013-03-04 18:33:00,
2013-03-04 12:43:00,32.0,-99.9,-100.00,East,88,20.0,24.0,-999,0.00,,,0.00,,2013-03-04 18:43:00,
2013-03-04 12:52:00,32.0,-99.9,-100.00,East,88,20.0,24.0,-999,0.00,,,0.00,,2013-03-04 18:52:00,
2013-03-04 13:02:00,32.0,-99.9,-100.00,East,89,20.0,26.0,-999,0.00,,,0.00,,2013-03-04 19:02:00,
2013-03-04 13:12:00,32.0,-99.9,-100.00,East,89,20.0,26.0,-999,0.00,,,0.00,,2013-03-04 19:12:00,
2013-03-04 13:22:00,32.0,-99.9,-100.00,East,89,20.0,26.0,-999,0.00,,,0.00,,2013-03-04 19:22:00,
2013-03-04 13:32:00,33.0,-99.9,-100.00,East,92,20.0,25.0,-999,0.00,,,0.00,,2013-03-04 19:32:00,
2013-03-04 13:42:00,33.0,-99.9,-100.00,East,92,20.0,25.0,-999,0.00,,,0.00,,2013-03-04 19:42:00,
2013-03-04 13:52:00,33.0,-99.9,-100.00,East,92,20.0,25.0,-999,0.00,,,0.00,,2013-03-04 19:52:00,
2013-03-04 14:02:00,33.0,-99.9,-100.00,East,86,18.0,28.0,-999,0.00,,,0.00,,2013-03-04 20:02:00,
2013-03-04 14:12:00,33.0,-99.9,-100.00,East,86,18.0,28.0,-999,0.00,,,0.00,,2013-03-04 20:12:00,
2013-03-04 14:22:00,33.0,-99.9,-100.00,East,86,18.0,28.0,-999,0.00,,,0.00,,2013-03-04 20:22:00,
2013-03-04 14:33:00,33.0,-99.9,-100.00,East,81,20.0,24.0,-999,0.00,,,0.00,,2013-03-04 20:33:00,
2013-03-04 14:42:00,33.0,-99.9,-100.00,East,81,20.0,24.0,-999,0.00,,,0.00,,2013-03-04 20:42:00,
2013-03-04 14:53:00,33.0,-99.9,-100.00,East,81,20.0,24.0,-999,0.00,,,0.00,,2013-03-04 20:53:00,
2013-03-04 15:02:00,33.0,-99.9,-100.00,East,84,20.0,24.0,-999,0.00,,,0.00,,2013-03-04 21:02:00,
2013-03-04 15:12:00,33.0,-99.9,-100.00,East,84,20.0,24.0,-999,0.00,,,0.00,,2013-03-04 21:12:00,
2013-03-04 15:22:00,33.0,-99.9,-100.00,East,84,20.0,24.0,-999,0.00,,,0.00,,2013-03-04 21:22:00,
2013-03-04 15:32:00,33.0,-99.9,-100.00,East,83,21.0,26.0,-999,0.00,,,0.00,,2013-03-04 21:32:00,
2013-03-04 15:43:00,33.0,-99.9,-100.00,East,83,21.0,26.0,-999,0.00,,,0.00,,2013-03-04 21:43:00,
2013-03-04 15:53:00,33.0,-99.9,-100.00,East,83,21.0,26.0,-999,0.00,,,0.00,,2013-03-04 21:53:00,
2013-03-04 16:02:00,34.0,-99.9,-100.00,East,100,18.0,23.0,-999,0.00,,,0.00,,2013-03-04 22:02:00,
2013-03-04 16:12:00,34.0,-99.9,-100.00,East,100,18.0,23.0,-999,0.00,,,0.00,,2013-03-04 22:12:00,
2013-03-04 16:22:00,34.0,-99.9,-100.00,East,100,18.0,23.0,-999,0.00,,,0.00,,2013-03-04 22:22:00,
2013-03-04 16:32:00,33.0,-99.9,-100.00,East,82,19.0,23.0,-999,0.00,,,0.00,,2013-03-04 22:32:00,
2013-03-04 16:43:00,33.0,-99.9,-100.00,East,82,19.0,23.0,-999,0.00,,,0.00,,2013-03-04 22:43:00,
2013-03-04 16:52:00,33.0,-99.9,-100.00,East,82,19.0,23.0,-999,0.00,,,0.00,,2013-03-04 22:52:00,
2013-03-04 17:02:00,32.0,-99.9,-100.00,East,85,19.0,24.0,-999,0.00,,,0.00,,2013-03-04 23:02:00,
2013-03-04 17:12:00,32.0,-99.9,-100.00,East,85,19.0,24.0,-999,0.00,,,0.00,,2013-03-04 23:12:00,
2013-03-04 17:22:00,32.0,-99.9,-100.00,East,85,19.0,24.0,-999,0.00,,,0.00,,2013-03-04 23:22:00,
2013-03-04 17:32:00,32.0,-99.9,-100.00,East,85,17.0,21.0,-999,0.00,,,0.00,,2013-03-04 23:32:00,
2013-03-04 17:42:00,32.0,-99.9,-100.00,East,85,17.0,21.0,-999,0.00,,,0.00,,2013-03-04 23:42:00,
2013-03-04 17:53:00,32.0,-99.9,-100.00,East,85,17.0,21.0,-999,0.00,,,0.00,,2013-03-04 23:53:00,
2013-03-04 18:02:00,32.0,-99.9,-100.00,East,85,17.0,22.0,-999,0.00,,,0.00,,2013-03-05 00:02:00,
2013-03-04 18:12:00,32.0,-99.9,-100.00,East,85,17.0,22.0,-999,0.00,,,0.00,,2013-03-05 00:12:00,
2013-03-04 18:22:00,32.0,-99.9,-100.00,East,85,17.0,22.0,-999,0.00,,,0.00,,2013-03-05 00:22:00,
2013-03-04 18:30:00,32.0,-99.9,-100.00,ENE,77,13.0,16.0,-999,0.00,,,0.00,,2013-03-05 00:30:00,
2013-03-04 18:33:00,32.0,-99.9,-100.00,East,80,15.0,19.0,-999,0.00,,,0.00,,2013-03-05 00:33:00,
2013-03-04 18:42:00,32.0,-99.9,-100.00,East,80,15.0,19.0,-999,0.00,,,0.00,,2013-03-05 00:42:00,
2013-03-04 18:52:00,32.0,-99.9,-100.00,East,80,15.0,19.0,-999,0.00,,,0.00,,2013-03-05 00:52:00,
2013-03-04 19:02:00,32.0,-99.9,-100.00,ENE,77,13.0,16.0,-999,0.00,,,0.00,,2013-03-05 01:02:00,
2013-03-04 19:12:00,32.0,-99.9,-100.00,ENE,77,13.0,16.0,-999,0.00,,,0.00,,2013-03-05 01:12:00,
2013-03-04 19:22:00,32.0,-99.9,-100.00,ENE,77,13.0,16.0,-999,0.00,,,0.00,,2013-03-05 01:22:00,
2013-03-04 19:30:00,32.0,-99.9,-100.00,East,84,13.0,17.0,-999,0.00,,,0.00,,2013-03-05 01:30:00,
2013-03-04 20:02:00,32.0,-99.9,-100.00,East,84,13.0,17.0,-999,0.00,,,0.00,,2013-03-05 02:02:00,
2013-03-04 20:12:00,32.0,-99.9,-100.00,East,84,13.0,17.0,-999,0.00,,,0.00,,2013-03-05 02:12:00,
2013-03-04 20:22:00,32.0,-99.9,-100.00,East,84,13.0,17.0,-999,0.00,,,0.00,,2013-03-05 02:22:00,
2013-03-04 20:42:00,32.0,-99.9,-100.00,East,85,13.0,16.0,-999,0.00,,,0.00,,2013-03-05 02:42:00,
2013-03-04 20:53:00,32.0,-99.9,-100.00,East,85,13.0,16.0,-999,0.00,,,0.00,,2013-03-05 02:53:00,
2013-03-04 21:02:00,32.0,-99.9,-100.00,ENE,78,13.0,14.0,-999,0.00,,,0.00,,2013-03-05 03:02:00,
2013-03-04 21:12:00,32.0,-99.9,-100.00,ENE,78,13.0,14.0,-999,0.00,,,0.00,,2013-03-05 03:12:00,
2013-03-04 21:22:00,32.0,-99.9,-100.00,ENE,78,13.0,14.0,-999,0.00,,,0.00,,2013-03-05 03:22:00,
2013-03-04 21:32:00,32.0,-99.9,-100.00,ENE,74,13.0,14.0,-999,0.00,,,0.00,,2013-03-05 03:32:00,
2013-03-04 21:42:00,32.0,-99.9,-100.00,ENE,74,13.0,14.0,-999,0.00,,,0.00,,2013-03-05 03:42:00,
2013-03-04 21:52:00,32.0,-99.9,-100.00,ENE,74,13.0,14.0,-999,0.00,,,0.00,,2013-03-05 03:52:00,
2013-03-04 22:02:00,32.0,-99.9,-100.00,ENE,77,14.0,18.0,-999,0.00,,,0.00,,2013-03-05 04:02:00,
2013-03-04 22:12:00,32.0,-99.9,-100.00,ENE,77,14.0,18.0,-999,0.00,,,0.00,,2013-03-05 04:12:00,
2013-03-04 22:22:00,32.0,-99.9,-100.00,ENE,77,14.0,18.0,-999,0.00,,,0.00,,2013-03-05 04:22:00,
2013-03-04 22:32:00,32.0,-99.9,-100.00,East,79,14.0,16.0,-999,0.00,,,0.00,,2013-03-05 04:32:00,
2013-03-04 22:42:00,32.0,-99.9,-100.00,East,79,14.0,16.0,-999,0.00,,,0.00,,2013-03-05 04:42:00,
2013-03-04 22:52:00,32.0,-99.9,-100.00,East,79,14.0,16.0,-999,0.00,,,0.00,,2013-03-05 04:52:00,
2013-03-04 23:02:00,33.0,-99.9,-100.00,East,81,11.0,14.0,-999,0.00,,,0.00,,2013-03-05 05:02:00,
2013-03-04 23:12:00,33.0,-99.9,-100.00,East,81,11.0,14.0,-999,0.00,,,0.00,,2013-03-05 05:12:00,
2013-03-04 23:23:00,33.0,-99.9,-100.00,East,81,11.0,14.0,-999,0.00,,,0.00,,2013-03-05 05:23:00,
2013-03-04 23:32:00,33.0,-99.9,-100.00,ENE,72,11.0,13.0,-999,0.00,,,0.00,,2013-03-05 05:32:00,
2013-03-04 23:42:00,33.0,-99.9,-100.00,ENE,72,11.0,13.0,-999,0.00,,,0.00,,2013-03-05 05:42:00,
2013-03-04 23:52:00,33.0,-99.9,-100.00,ENE,72,11.0,13.0,-999,0.00,,,0.00,,2013-03-05 05:52:00,